Satellite: AO-51
Catalog number: 28375
Epoch time:      05118.74004018
Element set:     236
Inclination:      098.2154 deg
RA of node:       183.2484 deg
Eccentricity:    0.0084894
Arg of perigee:   021.0261 deg
Mean anomaly:     339.4405 deg
Mean motion:   14.40451617 rev/day
Decay rate:       1.72e-06 rev/day^2
Epoch rev:            4349
Checksum:              286

/EX
SB KEPS @ AMSAT  $ORB05118.W
Orbital Elements  05118.WEATHER

HR AMSAT ORBITAL ELEMENTS FOR WEATHER SATELLITES
FROM WA5QGD FORT WORTH,TX April 28, 2005
SEND SUBSCRIBE/UNSUBSCRIBE TO majordomo@amsat.org ONLY
BID: ORB05118.W
TO ALL RADIO AMATEURS BT

Satellite: NOAA-10
Catalog number: 16969
Epoch time:      05117.92291363
Element set:    0709
Inclination:      098.7656 deg
RA of node:       123.5640 deg
Eccentricity:    0.0011674
Arg of perigee:   281.9417 deg
Mean anomaly:     078.0356 deg
Mean motion:   14.27251261 rev/day
Decay rate:       -3.4e-07 rev/day^2
Epoch rev:           96792
Checksum:              322

Satellite: NOAA-11
Catalog number: 19531
Epoch time:      05117.86902878
Element set:    0561
Inclination:      098.8440 deg
RA of node:       205.3557 deg
Eccentricity:    0.0012586
Arg of perigee:   091.6770 deg
Mean anomaly:     268.5850 deg
Mean motion:   14.14752492 rev/day
Decay rate:       1.25e-06 rev/day^2
Epoch rev:           85581
Checksum:              325

Satellite: NOAA-12
Catalog number: 21263
Epoch time:      05117.92110501
Element set:    0054
Inclination:      098.6994 deg
RA of node:       108.7129 deg
Eccentricity:    0.0012333
Arg of perigee:   211.3462 deg
Mean anomaly:     148.6969 deg
Mean motion:   14.25460258 rev/day
Decay rate:        6.5e-07 rev/day^2
Epoch rev:           72508
Checksum:              287

Satellite: MET-3/5
Catalog number: 21655
Epoch time:      05117.88585850
Element set:    0803
Inclination:      082.5587 deg
RA of node:       194.1902 deg
Eccentricity:    0.0013240
Arg of perigee:   005.2580 deg
Mean anomaly:     354.8679 deg
Mean motion:   13.16997747 rev/day
Decay rate:        5.1e-07 rev/day^2
Epoch rev:           65869
Checksum:              337

Satellite: MET-2/21
Catalog number: 22782
Epoch time:      05118.51651442
Element set:     188
Inclination:      082.5454 deg
RA of node:       300.3891 deg
Eccentricity:    0.0021092
Arg of perigee:   262.3450 deg
Mean anomaly:     097.5318 deg
Mean motion:   13.83587568 rev/day
Decay rate:       1.11e-06 rev/day^2
Epoch rev:           58870
Checksum:              302

Satellite: OKEAN-4
Catalog number: 23317
Epoch time:      05118.79762707
Element set:     612
Inclination:      082.5363 deg
RA of node:       303.4382 deg
Eccentricity:    0.0021128
Arg of perigee:   302.0746 deg
Mean anomaly:     057.8384 deg
Mean motion:   14.82123578 rev/day
Decay rate:       2.45e-06 rev/day^2
Epoch rev:           56859
Checksum:              305

Satellite: NOAA-14
Catalog number: 23455
Epoch time:      05117.89196315
Element set:    0578
Inclination:      099.0940 deg
RA of node:       165.3904 deg
Eccentricity:    0.0010039
Arg of perigee:   139.3499 deg
Mean anomaly:     220.8424 deg
Mean motion:   14.13558771 rev/day
Decay rate:       2.50e-06 rev/day^2
Epoch rev:           53239
Checksum:              313

Satellite: SICH-1
Catalog number: 23657
Epoch time:      05117.77046756
Element set:    0418
Inclination:      082.5252 deg
RA of node:       085.2343 deg
Eccentricity:    0.0022550
Arg of perigee:   290.5652 deg
Mean anomaly:     069.3158 deg
Mean motion:   14.81139843 rev/day
Decay rate:       3.05e-06 rev/day^2
Epoch rev:           52049
Checksum:              297

Satellite: NOAA-15
Catalog number: 25338
Epoch time:      05117.91908338
Element set:    0020
Inclination:      098.5144 deg
RA of node:       127.7831 deg
Eccentricity:    0.0011224
Arg of perigee:   141.2067 deg
Mean anomaly:     218.9918 deg
Mean motion:   14.24503439 rev/day
Decay rate:        6.4e-07 rev/day^2
Epoch rev:           36159
Checksum:              293

Satellite: RESURS
Catalog number: 25394
Epoch time:      05117.97480323
Element set:    0077
Inclination:      098.5405 deg
RA of node:       188.6079 deg
Eccentricity:    0.0000681
Arg of perigee:   343.6244 deg
Mean anomaly:     016.4914 deg
Mean motion:   14.24061520 rev/day
Decay rate:        1.4e-07 rev/day^2
Epoch rev:           35330
Checksum:              277

Satellite: FENGYUN1
Catalog number: 25730
Epoch time:      05117.81679079
Element set:    0402
Inclination:      098.6068 deg
RA of node:       121.6158 deg
Eccentricity:    0.0013658
Arg of perigee:   243.7466 deg
Mean anomaly:     116.2297 deg
Mean motion:   14.11791659 rev/day
Decay rate:      -2.85e-06 rev/day^2
Epoch rev:           30740
Checksum:              312

Satellite: OKEAN-0
Catalog number: 25860
Epoch time:      05117.77082645
Element set:    0421
Inclination:      097.7615 deg
RA of node:       145.8734 deg
Eccentricity:    0.0001660
Arg of perigee:   069.2672 deg
Mean anomaly:     290.8711 deg
Mean motion:   14.73236016 rev/day
Decay rate:        9.3e-07 rev/day^2
Epoch rev:           31058
Checksum:              294

Satellite: NOAA-16
Catalog number: 26536
Epoch time:      05117.91616816
Element set:    0329
Inclination:      099.0107 deg
RA of node:       076.0824 deg
Eccentricity:    0.0010198
Arg of perigee:   205.3212 deg
Mean anomaly:     154.7430 deg
Mean motion:   14.12232330 rev/day
Decay rate:       1.04e-06 rev/day^2
Epoch rev:           23696
Checksum:              268

